Location: Breitenfeld
(46.8500°N, 15.6333°E)
Time: 08:57:25
(UTC+00:00)

Cosmos 1954 Rocket - Pass Details

Date: 09 April 2020
Orbit: 752 x 781 km, 74.1° (Epoch: 24 May)

Event Time Altitude Azimuth Distance (km) Brightness Sun altitude
Rises 19:28:09 0° 206° (SSW) 3,227 7.2 -18.0°
Reaches altitude 10° 19:30:32 10° 209° (SSW) 2,300 6.4 -18.4°
Maximum altitude 19:35:44 72° 293° (WNW) 806 4.2 -19.1°
Drops below altitude 10° 19:40:57 10° 18° (NNE) 2,298 6.7 -19.8°
Sets 19:43:20 0° 21° (NNE) 3,224 7.4 -20.1°
